TimeMDT,TemperatureF,Dew PointF,Humidity,Sea Level PressureIn,VisibilityMPH,Wind Direction,Wind SpeedMPH,Gust SpeedMPH,PrecipitationIn,Events,Conditions,WindDirDegrees,DateUTC
12:58 AM,72.7,52.9,50,29.99,10.0,NNW,9.2,-,N/A,,Clear,340,2013-07-19 06:58:00
1:58 AM,74.5,52.5,46,29.99,10.0,North,9.2,-,N/A,,Clear,350,2013-07-19 07:58:00
2:58 AM,73.0,50.7,45,29.99,10.0,NNW,4.6,-,N/A,,Clear,330,2013-07-19 08:58:00
3:21 AM,73.4,50.0,44,30.09,10.0,North,12.7,-,N/A,Thunderstorm,Thunderstorm,360,2013-07-19 09:21:00
3:32 AM,75.2,51.8,44,30.10,6.0,North,15.0,20.7,N/A,Rain-Thunderstorm,Light Thunderstorms and Rain,360,2013-07-19 09:32:00
3:58 AM,65.1,57.2,75,30.03,10.0,SW,8.1,-,0.06,Rain-Thunderstorm,Light Thunderstorms and Rain,230,2013-07-19 09:58:00
4:06 AM,64.4,59.0,83,30.10,10.0,Calm,Calm,-,N/A,Rain-Thunderstorm,Light Rain,0,2013-07-19 10:06:00
4:10 AM,66.2,59.0,78,30.09,10.0,Calm,Calm,-,N/A,,Overcast,0,2013-07-19 10:10:00
4:58 AM,66.0,57.7,75,30.04,10.0,WNW,9.2,-,0.00,,Mostly Cloudy,290,2013-07-19 10:58:00
5:58 AM,64.6,60.4,86,30.05,10.0,West,5.8,-,N/A,,Overcast,270,2013-07-19 11:58:00
6:58 AM,67.8,57.6,70,30.04,10.0,North,5.8,-,N/A,,Mostly Cloudy,360,2013-07-19 12:58:00
7:53 AM,68.0,60.8,78,30.12,10.0,Calm,Calm,-,N/A,,Light Drizzle,0,2013-07-19 13:53:00
7:58 AM,68.5,60.3,75,30.06,10.0,Calm,Calm,-,0.00,,Light Drizzle,0,2013-07-19 13:58:00
8:03 AM,68.0,60.8,78,30.12,10.0,Calm,Calm,-,N/A,,Mostly Cloudy,0,2013-07-19 14:03:00
8:58 AM,71.4,59.5,66,30.06,10.0,SSW,5.8,-,0.00,,Mostly Cloudy,200,2013-07-19 14:58:00
9:58 AM,73.8,56.8,55,30.07,10.0,SW,6.9,-,N/A,,Overcast,230,2013-07-19 15:58:00
10:58 AM,75.0,59.7,59,30.06,10.0,South,10.4,-,N/A,,Overcast,190,2013-07-19 16:58:00
11:58 AM,81.0,57.0,44,30.04,10.0,SSW,6.9,-,N/A,,Clear,210,2013-07-19 17:58:00
12:58 PM,83.8,52.0,33,30.01,10.0,SSE,8.1,-,N/A,,Scattered Clouds,160,2013-07-19 18:58:00
1:58 PM,86.5,51.6,30,29.98,10.0,South,5.8,-,N/A,,Clear,170,2013-07-19 19:58:00
2:58 PM,89.1,50.5,27,29.95,10.0,Variable,6.9,-,N/A,,Clear,0,2013-07-19 20:58:00
3:58 PM,86.7,55.0,34,29.94,10.0,South,8.1,-,N/A,Thunderstorm,Partly Cloudy,180,2013-07-19 21:58:00
3:59 PM,86.0,57.2,37,30.01,10.0,South,9.2,-,N/A,Rain-Thunderstorm,Light Rain,190,2013-07-19 21:59:00
4:19 PM,84.2,55.4,37,30.01,10.0,SSW,12.7,-,N/A,Thunderstorm,Scattered Clouds,200,2013-07-19 22:19:00
4:58 PM,78.6,60.1,53,29.95,10.0,South,11.5,-,0.00,Thunderstorm,Partly Cloudy,170,2013-07-19 22:58:00
5:04 PM,78.8,60.8,54,30.01,10.0,South,11.5,-,N/A,Thunderstorm,Thunderstorm,170,2013-07-19 23:04:00
5:19 PM,80.6,59.0,48,30.00,10.0,SSE,15.0,-,N/A,,Mostly Cloudy,160,2013-07-19 23:19:00
5:58 PM,82.4,59.5,46,29.93,10.0,SSE,12.7,-,N/A,,Scattered Clouds,160,2013-07-19 23:58:00
6:58 PM,82.2,60.6,48,29.90,10.0,SSE,9.2,-,N/A,,Clear,150,2013-07-20 00:58:00
7:58 PM,78.6,61.0,55,29.91,10.0,SSE,8.1,-,N/A,,Clear,160,2013-07-20 01:58:00
8:58 PM,77.9,60.6,55,29.89,10.0,SSE,8.1,-,N/A,,Partly Cloudy,160,2013-07-20 02:58:00
9:58 PM,76.5,59.5,56,29.88,10.0,SSE,8.1,-,N/A,,Partly Cloudy,160,2013-07-20 03:58:00
10:48 PM,75.2,59.0,57,29.95,10.0,East,6.9,-,N/A,Thunderstorm,Thunderstorm,100,2013-07-20 04:48:00
10:58 PM,75.6,58.8,56,29.90,10.0,WNW,15.0,21.9,N/A,Thunderstorm,Thunderstorm,300,2013-07-20 04:58:00
11:04 PM,77.0,59.0,54,30.00,2.0,Variable,3.5,40.3,N/A,Rain-Thunderstorm,Light Thunderstorms and Rain,0,2013-07-20 05:04:00
11:08 PM,75.2,62.6,65,29.99,1.8,North,9.2,40.3,N/A,Rain-Thunderstorm,Thunderstorms and Rain,360,2013-07-20 05:08:00
11:13 PM,73.4,62.6,69,29.97,3.0,NNW,9.2,-,N/A,Rain-Thunderstorm,Thunderstorms and Rain,330,2013-07-20 05:13:00
11:30 PM,71.6,60.8,69,29.97,10.0,ESE,5.8,-,N/A,Thunderstorm,Mostly Cloudy,120,2013-07-20 05:30:00
11:58 PM,72.9,61.9,68,29.92,10.0,NE,17.3,24.2,0.06,,Overcast,40,2013-07-20 05:58:00